Location: Unspecified
(36.5600°N, 136.6600°E)
Time: 04:38:18
(UTC+09:00)

BlueWalker 3 - Pass Details

Date: 20 June 2024
Orbit: 480 x 491 km, 53.2° (Epoch: 24 July)

Event Time Altitude Azimuth Distance (km) Brightness Sun altitude
Rises 01:50:06 0° 326° (NNW) 2,537 5.9 -24.1°
Reaches altitude 10° 01:53:32 10° 360° (N) 1,656 5.4 -23.8°
Maximum altitude 01:54:59 12° 23° (NNE) 1,544 5.4 -23.7°
Drops below altitude 10° 01:56:25 10° 46° (NE) 1,656 5.6 -23.5°
Sets 01:59:51 0° 79° (E) 2,535 6.1 -23.2°
